Starlink 31838

operational
NORAD ID: 60130 Int'l Des: 2024-118 Owner: SPXS Country: US Constellation: starlink
LEOCIRCULAR

关于 Starlink 31838

正在加载描述...

实时位置

正在加载3D地球...

即将过境

高度历史

Altitude vs Time

uPlot chart will show altitude changes over time

两行轨道根数

1 60130U 24118T 25352.29947525 .00000069 00000-0 14458-4 0 9997
2 60130 53.1608 44.8770 0001100 82.3613 277.7512 15.30200047 83239
Epoch: Dec 18, 2025 • Age: 9 hours

当前状态

高度 494.3 km
速度 7.62 km/s
星下点 -52.83°S, 27.67°W
发射日期 Jun 24, 2024
运行时间 1.4 years
类型 internet

技术详情

分类 Payload
质量 730.00 kg
干质量 700.00 kg
总质量 730.00 kg
长度 0.30 m
直径 4.10 m
跨度 29.00 m
形状 Box + pan
制造商 SPXS
平台类型 Starlink V2M
阶段状态 In Orbit
所有者/国家 SPXS/US

大型星座

Loading constellations...